Weather History for New Castle, PA

Change the Weather History Date:

Thursday, June 20, 2013

  Actual Average Record
Temperature  
Mean Temperature 64 °F -  
Max Temperature 81 °F 81 °F 93 °F (1929)
Min Temperature 46 °F 55 °F 39 °F (1926)
Degree Days  
Heating Degree Days 2    
Growing Degree Days 14 (Base 50)    
Moisture  
Dew Point 50 °F    
Average Humidity 66    
Maximum Humidity 100    
Minimum Humidity 33    
Precipitation  
Precipitation 0.00 in - - ()
Sea Level Pressure  
Sea Level Pressure 30.27 in    
Wind  
Wind Speed 1 mph (NNE)    
Max Wind Speed 7 mph    
Max Gust Speed -    
Visibility 10 miles    
Events      
Averages and records for this station are not official NWS values.
T = Trace of Precipitation, MM = Missing Value Source: NWS Daily Summary

Daily Weather History Graph

Daily Weather History Graph

Search for Another Location

Airport:

Trip Planner

Search our weather history database for the weather conditions in past years. The results will help you decide how hot, cold, wet, or windy it might be!

Date:

Astronomy

Jun. 20, 2013 Rise Set
Actual Time 5:49 AM EDT 8:57 PM EDT
Civil Twilight 5:15 AM EDT 9:30 PM EDT
Nautical Twilight 4:32 AM EDT 10:13 PM EDT
Astronomical Twilight 3:41 AM EDT 11:05 PM EDT
Moon 5:56 PM EDT (6/20) 3:15 AM EDT (6/20)
Length of Visible Light 16h 15m
Length of Day
15h 07m
Waxing Gibbous, 89% of the Moon is Illuminated
Jun 20
Waxing Gibbous
Jun 23
Full
Jun 30
Last Quarter
Jul 8
New
Jul 15
First Quarter

Hourly Weather History & Observations

Time (EDT) Temp. Dew Point Humidity Pressure Visibility Wind Dir Wind Speed Gust Speed Precip Events Conditions
12:56 AM 52.9 °F 47.8 °F 83% 30.24 in 10.0 mi Calm Calm - N/A   Clear
1:56 AM 50.0 °F 47.8 °F 92% 30.24 in 10.0 mi Calm Calm - N/A   Clear
2:56 AM 50.0 °F 47.8 °F 92% 30.24 in 10.0 mi Calm Calm - N/A   Clear
3:56 AM 47.8 °F 47.8 °F 100% 30.24 in 10.0 mi Calm Calm - N/A   Clear
4:56 AM 47.8 °F 46.9 °F 97% 30.25 in 6.0 mi Calm Calm - N/A   Clear
5:56 AM 46.9 °F 45.9 °F 96% 30.26 in 10.0 mi Calm Calm - N/A   Clear
6:56 AM 50.9 °F 48.9 °F 93% 30.27 in 10.0 mi Calm Calm - N/A   Clear
7:56 AM 55.9 °F 50.9 °F 83% 30.27 in 10.0 mi Calm Calm - N/A   Clear
8:56 AM 61.0 °F 52.9 °F 75% 30.30 in 10.0 mi Calm Calm - N/A   Clear
9:56 AM 68.0 °F 55.9 °F 65% 30.30 in 10.0 mi Calm Calm - N/A   Clear
10:56 AM 73.9 °F 47.8 °F 40% 30.30 in 10.0 mi Variable 3.5 mph - N/A   Clear
11:56 AM 73.9 °F 50.0 °F 43% 30.29 in 10.0 mi Variable 3.5 mph - N/A   Clear
12:56 PM 75.9 °F 47.8 °F 37% 30.28 in 10.0 mi Calm Calm - N/A   Clear
2:56 PM 77.9 °F 47.8 °F 35% 30.26 in 10.0 mi Variable 3.5 mph - N/A   Clear
3:56 PM 81.0 °F 48.9 °F 33% 30.27 in 10.0 mi Variable 3.5 mph - N/A   Clear
4:56 PM 79.9 °F 50.0 °F 35% 30.27 in 10.0 mi Variable 3.5 mph - N/A   Clear
5:56 PM 81.0 °F 50.0 °F 34% 30.26 in 10.0 mi Calm Calm - N/A   Clear
6:56 PM 79.0 °F 48.9 °F 35% 30.25 in 10.0 mi NNE 4.6 mph - N/A   Clear
7:56 PM 77.0 °F 50.9 °F 40% 30.25 in 10.0 mi North 6.9 mph - N/A   Clear
8:56 PM 68.9 °F 55.9 °F 63% 30.25 in 10.0 mi North 3.5 mph - N/A   Clear
9:56 PM 63.9 °F 54.9 °F 72% 30.26 in 10.0 mi Calm Calm - N/A   Clear
10:56 PM 63.0 °F 54.9 °F 75% 30.27 in 10.0 mi ENE 4.6 mph - N/A   Clear
11:56 PM 56.8 °F 54.0 °F 90% 30.29 in 10.0 mi Calm Calm - N/A   Clear